TITAN 3C TRANSTAGE R/B, 3292

Orbit data source: Space-Track

TITAN 3C TRANSTAGE R/B, 3292 is space debris in GEO originally from a launch on Thu, 13 Jun 1968 UTC launched from the Air Force Eastern Test Range (AFETR). Debris objects in space refer to the collection of defunct objects orbiting the Earth. Examples of debris include non-operational satellites, rocket bodies, and fragments generated from explosions, collisions, or faulty payload assembly.

Loading next visibility...
Identifier
3292, 1968-050J
Orbit
GEO
Last TLE update
15 hours ago
Origin
Manufacturer
Martin Marietta
Mission
Spacecraft
Bus & Motor
TRANSTAGE, Unknown motor
Mass
~1,950 kg wet, ~1,950 kg dry
Launch date (UTC)
1968-06-13 (57 years ago)
Launch vehicle
Unknown
Launch site
Air Force Eastern Test Range (AFETR)
Object type
Payload
Rocket body
Debris
Shape & HBR
Cyl + 2 Nozzle, 4.6 m
Radar Cross Section
14.974 m², Large (>1 m²)

Expand to show TLE details & history

TLE from 15 hours ago
0 TITAN 3C TRANSTAGE R/B
1 03292U 68050J   25182.62152343 -.00000204  00000-0  00000-0 0  9996
2 03292   6.8869  56.0131 0174287 358.1172   2.5552  1.05594941 42808
Epoch: 2025-07-01T14:54Z
TLE epoch observation values (Epoch: 2025-07-01T14:54:59.624Z)
Latitude
0.09709°
Longitude
-86.88854°
Altitude
33,647.696 km
Speed
3.183 km/s
True Right ascension
03h 47m 05s
True Declination
0° 05' 49"
Sunlit
Object was in daylight at epoch
Visualization orbit readout
Latitude
-5.99581°
Longitude
152.38321°
Altitude
34,682.84 km
Speed
3.103 km/s
Apparent Right ascension
19h 58m 46s
Apparent Declination
-12° 51' 35"
Sunlit
Object is in daylight
Visualization observer readout
Local Sidereal Time
17:50:43
Azimuth
143.606° SSE
Elevation
29.421°
Doppler factor
1
Orbital elements
Apogee altitude
35,068.437 km
Perigee altitude
33,648.465 km
Semi-major axis
40,736.588 km
Eccentricity
0.01743
Inclination
6.8869°
RAAN
56.0131°
Arg. of periapsis
358.1172°
True anomaly
Unknown
Mean anomaly
2.5552°
Eccentric anomaly
Unknown
Mean motion
0.26398 °/min
Orbital period
1,363.75 mins
BSTAR
0
Loading historical data...
3292 neighbors
Loading maneuver chart data...
Loading SW <> Apogee altitude chart data...
Loading historical data...
Loading historical data...
Loading historical data...
Loading historical data...
Loading historical data...
Loading historical data...
Loading historical data...

TITAN 3C TRANSTAGE R/B Visibility forecast

Observer location: undefined°, undefined°

Span
Click to sort rows by Start time (UTC) header in descending order
Start Az.
Max El. time (UTC)
Max El. Az.
Max El.
End time (UTC)
End Az.
1440 mins2025-07-02 06:09:01.784Z143.617° SSE2025-07-02 17:25:01.784Z121.571° SE28.242°2025-07-03 06:09:01.784Z125.502° SE
|